"Pseudo-MPEC" for ZTF01rY

Created 2018 Dec 10 20:18:11 UT using Find_Orb

Click here for an explanation of pseudo-MPECs

 
 Astrometry: 
     ZTF01rY  C2018 12 03.32286805 20 22.37 +16 21 27.5          16.39RUNEOCPI41
     ZTF01rY  C2018 12 03.32321505 20 29.88 +16 21 01.1          16.39RUNEOCPI41
     ZTF01rY  C2018 12 03.35628405 33 15.22 +15 31 22.5          16.28RUNEOCPI41

Station data:
(I41) Palomar Mountain--ZTF  (N33.357340 W116.859780)  US/California. 1.2-m
   f/2.44 Oschin Schmidt + CCD.

Orbital elements:  ZTF01rY
   Perigee 2018 Dec 2.985212 +/- 35.5 TT = 23:38:42 (JD 2458455.485212)
Epoch 2018 Dec  3.0 TT = JDT 2458455.5                        AutoNEOCP
M   0.99952004 +/- 29               (J2000 equator)
n  67.58795425 +/- 0.43             Peri.   14.55551 +/- 57
a128832.066 +/- 4.32e+7             Node   312.93153 +/- 70
e   0.7316502 +/- 0.241             Incl.   21.65662 +/- 1.7
P7669.86m/5.326d           H 32.6   G  0.15   U 12.2  SR
q 34572.0468 +/- 1.77e+7    Q 223092.085 +/- 3.86e+9
From 3 observations 2018 Dec. 3 (48.1 min); mean residual 4".86
Residuals in arcseconds: 
181203 I41  8.0+  2.4-    181203 I41  8.1-  2.5+    181203 I41  .06+  .02-    

Ephemerides (geocentric):
Date (UTC) HH   RA              Dec         delta   r     elong  mag " sig PA
---- -- -- --  -------------   -----------  ------ ------ -----  --- ---- ---
2018 12 10 20  09 37 44.919   -04 31 14.89  223240 .98525 109.2 20.9  56d  10
2018 12 10 21  09 40 07.198   -04 44 57.35  223416 .98523 108.6 20.9  56d  10
2018 12 10 22  09 42 29.383   -04 58 36.83  223515 .98521 108.0 21.0  56d  10
2018 12 10 23  09 44 51.576   -05 12 13.81  223539 .98519 107.4 21.0  56d  10
2018 12 11 00  09 47 13.877   -05 25 48.75  223487 .98517 106.8 21.0  56d  10
2018 12 11 01  09 49 36.388   -05 39 22.12  223358 .98515 106.2 21.0  56d  10
2018 12 11 02  09 51 59.211   -05 52 54.37  223153 .98513 105.6 21.0  55d  10
2018 12 11 03  09 54 22.450   -06 06 25.98  222872 .98511 105.0 21.0  55d  10
2018 12 11 04  09 56 46.210   -06 19 57.39  222514 .98509 104.4 21.1  55d  10
2018 12 11 05  09 59 10.596   -06 33 29.06  222080 .98507 103.8 21.1  55d  10
2018 12 11 06  10 01 35.718   -06 47 01.46  221569 .98505 103.2 21.1  55d  10
2018 12 11 07  10 04 01.689   -07 00 35.04  220981 .98503 102.6 21.1  55d  10
2018 12 11 08  10 06 28.621   -07 14 10.26  220314 .98501 102.0 21.1  55d  10
2018 12 11 09  10 08 56.635   -07 27 47.61  219570 .98499 101.4 21.1  55d  10
2018 12 11 10  10 11 25.853   -07 41 27.56  218748 .98497 100.8 21.2  55d  10
2018 12 11 11  10 13 56.403   -07 55 10.59  217847 .98494 100.2 21.2  55d  10
2018 12 11 12  10 16 28.419   -08 08 57.21  216866 .98492  99.6 21.2  55d  10
2018 12 11 13  10 19 02.038   -08 22 47.91  215805 .98490  98.9 21.2  55d  10
2018 12 11 14  10 21 37.408   -08 36 43.23  214663 .98488  98.3 21.2  55d  10
2018 12 11 15  10 24 14.683   -08 50 43.70  213440 .98486  97.6 21.2  55d  10
2018 12 11 16  10 26 54.024   -09 04 49.87  212135 .98483  97.0 21.2  55d  10
2018 12 11 17  10 29 35.604   -09 19 02.32  210747 .98481  96.3 21.2  55d  10
2018 12 11 18  10 32 19.606   -09 33 21.63  209275 .98479  95.7 21.2  55d  10
2018 12 11 19  10 35 06.225   -09 47 48.43  207718 .98477  95.0 21.3  55d  10
2018 12 11 20  10 37 55.668   -10 02 23.34  206076 .98474  94.3 21.3  55d  10
2018 12 11 21  10 40 48.158   -10 17 07.04  204346 .98472  93.6 21.3  55d  10
2018 12 11 22  10 43 43.934   -10 32 00.24  202528 .98470  92.9 21.3  55d  10
2018 12 11 23  10 46 43.256   -10 47 03.64  200621 .98468  92.1 21.3  55d  10
2018 12 12 00  10 49 46.402   -11 02 18.04  198623 .98465  91.4 21.3  55d  10
2018 12 12 01  10 52 53.675   -11 17 44.22  196533 .98463  90.6 21.3  55d  10
2018 12 12 02  10 56 05.405   -11 33 23.04  194348 .98461  89.8 21.3  55d  10
2018 12 12 03  10 59 21.950   -11 49 15.39  192069 .98458  89.0 21.3  54d  10
2018 12 12 04  11 02 43.703   -12 05 22.21  189692 .98456  88.2 21.3  54d  10
2018 12 12 05  11 06 11.098   -12 21 44.49  187216 .98454  87.4 21.3  54d  10
2018 12 12 06  11 09 44.610   -12 38 23.30  184638 .98452  86.5 21.3  54d  10
2018 12 12 07  11 13 24.766   -12 55 19.74  181958 .98449  85.6 21.4  54d  10
2018 12 12 08  11 17 12.150   -13 12 34.98  179171 .98447  84.7 21.4  54d  11
2018 12 12 09  11 21 07.414   -13 30 10.28  176276 .98445  83.7 21.4  54d  11
2018 12 12 10  11 25 11.286   -13 48 06.93  173271 .98443  82.7 21.4  54d  11
2018 12 12 11  11 29 24.586   -14 06 26.33  170151 .98440  81.7 21.4  54d  11
2018 12 12 12  11 33 48.237   -14 25 09.92  166914 .98438  80.7 21.4  54d  11
2018 12 12 13  11 38 23.288   -14 44 19.22  163557 .98436  79.5 21.4  54d  11
2018 12 12 14  11 43 10.932   -15 03 55.81  160076 .98434  78.4 21.4  54d  11
2018 12 12 15  11 48 12.538   -15 24 01.29  156468 .98432  77.2 21.4  54d  11
2018 12 12 16  11 53 29.682   -15 44 37.29  152727 .98429  75.9 21.4  54d  11
2018 12 12 17  11 59 04.193   -16 05 45.43  148849 .98427  74.6 21.5  53d  11
2018 12 12 18  12 04 58.204   -16 27 27.24  144831 .98425  73.2 21.5  53d  11
2018 12 12 19  12 11 14.222   -16 49 44.05  140665 .98423  71.7 21.5  53d  11